Theta_e
351 358 363 363 363 363 361 360 360 359 360 359 358 357 356 354 352 351 349 348 347 347 346 345 344 344 343 343 342 342 343 343 344 346 348 350 352 355 357 358 361 356 361
355 358 363 362 362 360 361 360 360 360 360 361 358 358 353 351 349 348 347 346 345 344 343 342 341 340 340 339 338 338 339 340 342 343 345 347 349 354 356 356 358 357 360
354 358 360 363 363 361 362 359 358 359 359 358 357 352 350 348 347 345 344 343 342 341 339 339 338 337 337 337 337 337 338 338 340 341 343 336 338 350 357 356 356 357 359
354 355 358 363 362 361 359 358 357 357 355 353 352 350 348 346 343 341 340 339 338 337 337 336 335 334 333 333 333 333 335 337 340 341 333 332 330 350 356 355 356 355 356
352 354 357 362 359 358 356 356 356 354 352 350 350 348 345 342 339 338 338 337 337 336 336 334 333 333 333 333 334 336 339 341 343 340 329 326 330 355 355 354 355 356 356
352 353 359 360 359 358 355 355 353 352 350 350 348 345 342 339 338 338 337 336 335 335 335 333 333 333 333 334 336 338 340 341 342 327 326 326 330 354 353 351 353 355 358
350 352 354 359 359 357 354 352 350 350 349 347 345 342 339 338 338 338 337 337 335 335 334 333 333 335 336 336 338 339 341 341 331 324 320 326 337 352 349 347 348 352 355
349 350 352 357 358 354 352 350 350 350 347 345 343 341 339 338 339 339 338 337 336 334 334 334 335 337 338 338 339 341 341 342 336 326 323 326 340 345 342 342 342 344 350
349 348 349 351 351 354 353 351 349 347 346 345 345 343 339 339 340 339 339 339 338 338 338 338 339 340 340 340 341 343 343 343 335 329 328 333 345 344 339 338 337 338 342
348 347 348 347 346 347 348 351 348 346 345 346 343 342 342 340 340 341 344 343 340 340 340 341 342 344 345 347 347 348 346 344 332 328 328 339 351 348 346 344 340 339 341
347 345 345 345 346 347 345 346 348 346 345 344 342 343 342 333 332 335 339 340 343 343 343 344 346 348 348 347 349 350 349 335 331 332 331 348 351 346 344 346 347 343 340
342 342 343 344 346 345 346 342 338 338 336 335 335 333 334 331 330 334 338 346 347 346 345 347 348 349 346 338 336 341 338 334 332 330 330 349 347 342 341 343 345 346 343
342 342 342 345 346 344 341 341 338 335 335 334 333 331 330 332 333 336 334 340 338 343 336 336 336 338 335 333 329 327 333 331 327 324 332 346 345 341 339 339 340 342 343
340 342 346 347 343 342 341 338 335 334 333 333 333 336 336 333 331 334 334 333 330 334 331 333 332 332 333 337 330 329 328 327 326 325 326 345 344 343 339 339 340 339 341
340 342 343 344 342 341 340 336 335 334 334 333 335 333 334 334 333 331 332 332 332 329 330 331 333 335 332 330 329 329 329 329 328 326 325 338 341 342 341 338 338 339 339
340 340 342 342 342 341 338 334 330 330 329 331 331 329 331 333 331 332 331 331 330 330 331 331 333 332 328 327 326 327 328 327 327 326 325 324 330 332 335 339 340 339 338
341 343 344 344 343 342 338 334 328 327 331 331 329 328 329 329 330 330 331 331 331 332 333 333 329 326 324 323 323 326 326 326 325 324 324 323 322 327 329 329 332 333 336
344 343 345 346 346 345 341 335 331 329 329 330 329 328 332 329 330 332 331 331 332 333 332 325 322 318 316 314 312 310 312 321 322 320 322 321 321 321 324 327 329 330 329
343 343 344 346 345 343 342 339 336 332 333 332 332 331 330 331 334 331 332 331 332 327 320 319 318 314 310 310 311 309 310 309 315 317 316 320 318 319 321 324 328 327 328
344 344 343 344 343 342 342 342 341 338 338 338 336 335 334 334 336 331 330 324 323 318 317 316 312 312 310 309 312 309 308 308 307 309 312 316 316 318 318 318 318 322 326
342 341 342 341 341 342 338 336 335 334 335 334 334 335 334 332 333 328 321 318 316 312 314 314 312 310 308 309 306 305 305 306 306 306 308 311 310 313 315 316 315 317 319
339 340 341 340 340 338 339 336 335 335 335 333 333 332 333 333 326 323 317 315 313 313 313 312 310 308 307 309 304 301 297 299 302 305 307 310 312 313 315 316 315 315 318
338 339 341 338 337 337 336 336 334 333 332 329 328 328 327 324 322 318 316 315 313 311 312 311 310 309 305 307 305 301 296 294 300 302 305 308 309 309 311 312 314 315 317
337 340 337 337 336 336 336 333 330 327 324 325 327 326 325 323 320 317 316 315 314 311 311 311 313 310 307 304 304 307 303 302 297 296 302 305 308 310 311 313 313 313 315
337 338 336 336 335 335 333 332 328 325 326 326 328 327 320 318 318 318 316 314 312 312 312 312 311 310 309 305 304 303 302 301 300 299 297 303 307 308 312 314 314 313 313
336 336 337 336 333 332 330 325 323 321 319 318 317 314 319 319 317 316 317 313 312 314 312 313 312 312 310 308 306 305 302 300 299 298 298 299 300 305 311 312 314 312 313
Wind_Speed
10 14 18 16 15 15 15 15 14 14 12 12 13 14 15 14 12 12 11 12 11 10 9 8 8 7 6 5 5 6 7 8 8 9 9 7 6 4 1 5 8 8 8
17 14 18 17 16 16 15 15 14 12 10 12 15 14 16 12 11 11 10 10 9 8 7 6 5 4 4 4 3 3 4 7 10 11 12 10 9 7 3 2 7 6 7
18 15 15 18 17 16 16 15 12 13 12 11 12 14 11 11 11 10 9 8 7 6 5 4 4 4 4 3 3 4 6 8 10 13 15 5 6 11 6 3 5 6 5
16 12 13 18 16 16 15 13 13 11 11 12 12 11 11 10 9 8 7 6 6 5 4 4 4 3 3 4 4 5 6 9 11 13 7 5 9 11 8 6 4 5 4
16 14 14 18 16 15 15 13 13 13 11 11 11 11 10 9 8 7 6 5 5 5 4 3 3 4 4 5 6 7 8 10 12 12 7 7 6 12 12 9 7 5 4
16 15 16 17 16 16 15 14 14 13 13 12 12 11 9 8 7 6 6 4 4 4 4 3 3 4 5 6 7 8 10 12 13 7 7 8 9 9 12 9 5 4 4
15 14 15 17 16 17 16 15 14 14 13 12 11 10 9 8 7 6 6 6 4 4 3 2 2 4 5 5 8 10 13 14 8 6 7 8 6 12 9 7 5 3 2
17 15 15 19 17 16 15 15 15 14 13 12 10 10 9 8 8 7 7 7 5 3 2 3 5 7 7 7 9 12 14 16 11 5 7 2 2 7 8 6 4 3 4
19 16 14 14 16 18 16 15 15 14 13 11 10 9 10 11 10 9 8 8 8 8 7 7 8 9 9 10 11 13 16 16 11 3 8 3 7 8 8 6 4 4 5
17 16 15 12 13 13 11 17 15 14 13 12 11 11 12 12 11 11 11 10 11 10 10 11 10 11 11 11 12 15 18 18 7 4 5 5 12 11 9 8 7 6 6
14 17 15 14 11 11 11 11 14 15 14 12 12 12 9 4 6 9 11 14 14 13 12 11 12 12 11 11 15 19 19 6 5 5 2 8 7 7 7 6 7 6 6
17 18 16 15 14 13 10 10 7 8 5 6 6 7 5 6 6 11 13 18 16 14 11 12 12 13 11 5 5 11 2 6 5 4 3 10 10 7 6 5 4 5 6
21 15 17 16 15 15 11 8 5 5 5 6 8 6 5 5 6 5 3 3 3 8 3 4 7 4 5 5 5 4 4 4 4 2 4 11 10 9 8 8 6 6 4
21 17 17 16 15 11 9 8 9 7 6 5 7 5 4 3 3 3 2 3 4 2 2 1 1 2 3 3 7 6 6 5 4 4 3 9 10 11 12 11 10 9 8
15 15 12 14 11 11 10 4 8 8 6 5 5 5 4 3 3 3 3 2 2 1 1 3 2 4 4 5 5 4 5 5 6 4 4 12 10 12 13 13 14 14 12
15 13 12 9 9 9 7 6 5 5 5 4 4 4 5 4 2 2 2 2 4 3 4 4 4 3 2 3 4 6 6 6 5 5 4 4 11 17 23 17 16 15 15
9 11 14 10 9 9 10 6 5 5 5 4 4 3 2 2 1 2 2 3 3 3 5 4 4 4 5 6 6 6 6 7 5 4 4 2 4 8 11 17 20 18 17
13 14 13 11 10 10 8 7 4 4 4 4 3 3 2 2 2 1 2 2 4 4 3 4 4 5 4 4 4 4 4 6 6 7 4 4 3 4 4 6 11 18 15
9 10 10 10 10 9 9 6 6 6 5 4 3 3 2 4 4 1 1 3 4 4 4 4 4 3 4 5 5 5 7 5 4 5 7 6 3 3 2 9 14 12 17
8 7 9 7 9 8 5 5 4 4 3 4 3 2 5 2 2 1 5 6 5 4 5 4 6 5 2 4 5 6 5 4 4 4 5 5 4 4 5 6 5 9 14
8 8 8 9 7 7 3 4 3 4 3 3 3 5 5 4 4 7 5 5 5 6 4 4 3 5 5 4 3 5 4 2 3 5 5 5 5 6 5 5 4 5 8
6 8 8 8 8 5 4 3 3 4 3 4 3 4 3 6 7 7 6 5 6 5 5 4 5 3 3 3 2 2 4 5 2 3 5 5 6 4 4 5 6 8 8
7 7 7 7 6 6 6 4 3 4 4 3 2 2 3 8 7 7 7 5 3 3 2 2 3 4 1 4 4 1 4 3 6 4 5 5 6 4 4 4 6 6 6
6 6 7 8 8 6 6 5 6 5 5 4 3 3 5 7 7 7 6 5 4 3 2 1 2 0 1 2 3 2 1 4 1 7 4 5 5 6 6 4 6 6 9
8 7 6 8 7 6 7 4 3 2 2 3 5 5 4 4 7 6 6 5 2 2 1 1 1 2 2 2 1 2 2 2 1 2 5 10 7 4 5 5 8 8 8
9 8 6 7 7 8 9 8 8 8 7 5 3 4 2 2 5 5 6 4 2 2 1 2 3 3 4 3 1 1 1 2 3 1 2 5 5 6 7 4 4 5 5
Wind_Direction
136 138 134 130 123 118 114 108 105 104 103 102 101 103 99 94 88 88 84 84 84 84 85 83 79 75 74 67 45 20 358 343 333 320 314 310 303 294 17 68 47 96 100
132 132 131 133 132 129 127 121 117 122 122 126 123 108 96 102 104 102 100 95 92 87 83 80 78 74 71 62 44 16 342 325 319 314 309 308 298 272 258 112 100 97 115
132 138 139 136 135 135 125 126 126 112 109 101 89 96 111 117 115 109 106 102 100 91 82 76 67 49 27 25 7 346 327 313 310 308 301 313 277 255 213 202 132 117 120
131 133 134 134 133 129 127 115 113 109 111 103 111 122 124 121 115 116 111 110 105 94 78 62 43 37 15 358 343 333 318 309 307 301 301 301 278 231 193 207 159 143 155
135 133 139 136 134 128 125 124 121 117 127 134 136 133 132 130 131 122 115 109 104 96 90 58 20 356 343 340 336 328 319 313 310 309 301 281 306 156 184 183 178 173 191
138 137 142 141 137 133 137 135 128 139 146 147 142 142 142 137 127 116 110 103 98 93 79 48 13 342 339 337 327 315 308 305 308 308 308 279 219 187 178 160 142 132 185
137 139 140 138 135 138 145 148 151 150 150 149 149 149 149 143 136 133 127 119 103 87 73 50 340 306 301 304 302 297 297 303 312 316 319 327 136 167 153 129 134 151 187
143 144 147 144 142 146 151 157 156 156 155 156 159 161 155 158 159 159 152 147 148 157 187 231 248 263 274 284 288 294 297 304 309 329 298 243 171 137 128 130 149 175 228
145 145 149 151 150 155 155 160 163 160 160 165 168 165 173 182 182 180 181 187 188 196 209 237 255 268 275 282 289 289 291 296 300 3 311 178 172 145 142 157 180 200 226
148 150 149 153 157 159 157 163 165 165 171 172 177 179 192 192 197 200 208 210 212 220 222 236 248 263 275 284 290 289 289 293 294 294 238 210 180 162 160 167 184 202 229
157 149 155 158 163 154 154 167 171 175 177 181 190 196 207 190 212 220 218 220 222 223 230 247 260 266 271 284 283 278 277 279 276 287 199 204 191 168 158 146 182 197 226
158 156 158 162 168 160 161 166 164 178 175 186 199 204 203 207 208 217 220 222 222 227 230 249 261 265 276 257 268 285 275 258 289 285 210 187 196 181 183 172 159 194 228
162 157 167 165 172 165 162 165 172 182 186 196 210 206 204 222 230 213 235 208 193 245 249 268 287 275 284 297 297 270 255 250 252 274 190 202 201 197 208 195 194 200 202
151 153 163 165 156 162 158 181 176 180 190 189 208 188 188 182 73 54 96 190 185 267 235 207 272 241 256 276 286 325 339 336 312 328 275 222 225 220 221 219 210 205 197
145 156 157 158 152 164 163 165 182 189 169 164 121 117 95 76 73 31 353 47 56 351 351 327 328 306 336 308 351 349 339 326 318 332 336 353 295 260 257 238 228 220 207
143 154 156 154 147 141 136 138 105 120 127 114 110 104 87 91 80 48 360 23 13 1 315 291 284 319 287 305 323 347 325 315 355 17 18 13 30 12 12 310 269 248 232
142 130 144 143 130 114 114 105 109 132 124 111 114 109 88 68 48 33 4 10 353 298 288 320 8 28 23 11 0 331 326 316 335 352 338 335 36 35 18 4 4 357 333
129 139 142 143 136 122 112 119 128 126 133 135 141 159 198 230 175 351 6 351 287 295 359 43 35 32 22 4 342 340 351 341 323 340 342 337 16 14 346 309 315 323 355
136 138 131 145 141 133 131 139 149 170 161 153 140 122 211 223 145 193 280 282 331 36 34 35 42 58 17 358 349 354 339 338 6 4 4 358 279 237 244 276 265 278 313
83 100 111 114 116 120 127 137 136 134 112 111 120 173 163 141 163 184 33 50 52 41 24 37 36 15 20 359 351 333 309 323 3 5 314 290 292 304 240 238 236 241 236
103 108 112 121 134 127 138 138 123 145 143 113 135 146 152 187 80 90 90 58 43 46 43 41 25 33 3 348 0 313 289 285 38 317 301 299 293 283 287 264 248 265 261
129 129 125 132 140 158 149 151 143 147 140 145 158 160 151 101 107 87 78 64 45 31 28 31 54 20 348 330 301 292 330 330 311 303 318 304 291 284 293 301 280 264 253
131 142 139 143 137 147 139 130 82 86 83 94 119 116 133 110 109 101 96 90 80 73 41 42 43 36 318 315 337 126 353 322 330 318 324 317 325 309 281 296 286 291 300
157 128 125 113 108 114 123 117 135 149 160 181 157 157 129 120 122 118 119 115 104 66 45 28 33 205 54 299 333 349 222 189 307 324 309 308 329 313 287 312 285 276 278
130 121 138 117 107 93 77 104 116 112 109 115 139 157 133 136 128 124 120 106 108 102 341 344 259 305 264 202 191 300 318 308 217 198 298 327 331 304 262 248 254 268 263
122 131 139 125 117 106 91 78 81 87 90 93 85 98 160 130 108 114 117 132 122 126 240 271 264 271 272 245 231 293 241 226 270 278 271 288 272 305 304 316 298 262 258